Location: Nicosia
(35.1670°N, 33.3670°E)
Time: 05:23:52
(UTC+03:00)

Tiangong - Visible Passes

Search period start: 07 October 2022 00:00
Search period end: 17 October 2022 00:00
Orbit: 383 x 385 km, 41.5° (Epoch: 06 October)

Date Brightness Start Highest point End Pass type
(mag) Time Alt. Az. Time Alt. Az. Time Alt. Az.
07 Oct -2.1 19:39:39 10° SW 19:42:45 59° SSE 19:43:02 56° ESE visible
08 Oct -0.1 20:16:34 10° W 20:18:23 28° WNW 20:18:23 28° WNW visible
09 Oct -2.1 19:16:23 10° WSW 19:19:31 75° NNW 19:21:21 23° ENE visible
10 Oct -0.8 19:53:29 10° W 19:56:23 32° NNW 19:56:24 32° NNW visible
11 Oct -1.3 18:53:04 10° W 18:56:06 45° NNW 18:59:07 10° ENE visible
11 Oct 1.1 20:30:41 10° WNW 20:31:17 14° NW 20:31:17 14° NW visible
12 Oct -0.5 19:30:13 10° WNW 19:32:57 26° N 19:33:55 22° NNE visible
13 Oct 0.2 20:07:08 10° NW 20:08:37 20° NNW 20:08:37 20° NNW visible
14 Oct -0.5 19:06:39 10° WNW 19:09:19 24° N 19:11:06 15° NE visible
15 Oct -0.7 19:43:13 10° NW 19:45:42 28° N 19:45:42 28° N visible
16 Oct -0.6 18:42:44 10° NW 18:45:25 25° N 18:48:06 10° ENE visible
16 Oct 0.8 20:19:27 10° WNW 20:20:15 16° NW 20:20:15 16° NW visible
